Regional Weather Roundup
Issued by NWS

Home | Current Version | Previous Version | Text Only | Print | Product List | Glossary On
Versions: 1 2 3 4 5 6 7 8 9 10 11 12 13 14 15 16 17 18 19 20 21 22 23 24 25 26 27 28 29 30 31 32 33 34 35 36 37 38 39 40 41 42 43 44 45 46 47 48 49 50
000
ASUS43 KOAX 231510
RWRNE

WEATHER ROUNDUP FOR NEBRASKA
NATIONAL WEATHER SERVICE OMAHA NE
1000 AM CDT MON OCT 23 2017

NOTES: SATELLITE DATA IS BEING USED TO AUGMENT CLOUD COVER ABOVE
       12000 FEET.
       "FAIR" INDICATES FEW OR NO CLOUDS BELOW 12,000 FEET WITH NO
       SIGNIFICANT WEATHER AND/OR OBSTRUCTIONS TO VISIBILITY.


NEZ001>004-019>022-054>056-231600-
NEBRASKA PANHANDLE

CITY           SKY/WX    TMP DP  RH WIND       PRES   REMARKS
SCOTTSBLUFF    CLOUDY    50  22  33 NW18      30.37R
ALLIANCE       CLOUDY    46  22  38 NW18      30.32R
CHADRON        SUNNY     47  23  38 W17       30.33R
GORDON         FAIR      44  31  59 W12       30.27R
KIMBALL        CLOUDY    44  29  55 NW17      30.39R
SIDNEY         CLOUDY    47  21  35 N22G33    30.35R
$$

NEZ057>060-069>072-079>082-231600-
SOUTHWEST NEBRASKA

CITY           SKY/WX    TMP DP  RH WIND       PRES   REMARKS
NORTH PLATTE   MOSUNNY   54  34  46 NW18G25   30.26R
IMPERIAL       CLOUDY    49  34  56 NW8       30.30R
LEXINGTON      CLOUDY    55  28  34 N20G30    30.20S
MCCOOK         CLOUDY    53  37  54 NW16      30.25R
OGALLALA       CLOUDY    52  30  42 NW14G22   30.30R
$$

NEZ005>010-023>029-035>040-094-231600-
NORTH CENTRAL NEBRASKA

CITY           SKY/WX    TMP DP  RH WIND       PRES   REMARKS
VALENTINE      MOSUNNY   54  27  35 NW23G35   30.19R
AINSWORTH      MOSUNNY   51  32  48 NW23G35   30.18R
BROKEN BOW     CLOUDY    54  28  36 NW21G31   30.18R
O`NEILL        SUNNY     54  34  47 NW28G36   30.12R
ORD            SUNNY     54  30  40 NW24G36   30.14R
THEDFORD       SUNNY     53  28  37 NW23G32   30.23R
$$

NEZ041-046>049-061>064-073>077-083>087-231600-
SOUTH CENTRAL NEBRASKA

CITY           SKY/WX    TMP DP  RH WIND       PRES   REMARKS
GRAND ISLAND   PTSUNNY   57  32  38 NW23G32   30.13R
AURORA         PTSUNNY   58  31  35 NW16G30   30.11R
HASTINGS       CLOUDY    58  30  34 NW24G33   30.14R
HEBRON         CLOUDY    61  39  44 NW21G28   30.07R
HOLDREGE       CLOUDY    57  29  35 N23G36    30.17S
KEARNEY        MOSUNNY   57  27  31 N29G39    30.16R
YORK           CLOUDY    59  32  36 NW24G35   30.08R
$$

NEZ011>018-030>034-042>045-231600-
NORTHEAST NEBRASKA

CITY           SKY/WX    TMP DP  RH WIND       PRES   REMARKS
NORFOLK        SUNNY     56  35  45 NW31G40   30.02R
ALBION         SUNNY     57  33  40 NW26G35   30.09R
BLAIR          CLOUDY    59  41  51 NW20G30   29.97R
COLUMBUS       SUNNY     59  33  37 NW30G40   30.05R
FREMONT        CLOUDY    60  35  39 NW28G40   30.01R
TEKAMAH        MOSUNNY   59  39  47 NW17G26   29.98R
WAYNE          MOSUNNY   55  34  43 NW20G31   30.01R
$$

NEZ050>053-065>068-078-088>093-231600-
SOUTHEAST NEBRASKA

CITY           SKY/WX    TMP DP  RH WIND       PRES   REMARKS
LINCOLN        LGT RAIN  61  40  45 NW21G31   30.03R
OMAHA EPPLEY   CLOUDY    61  40  45 N21G30    29.95R
BEATRICE       PTSUNNY   58  43  58 NW12      30.02R
FALLS CITY     CLOUDY    59  40  49 NW12G20   29.96R
NEBRASKA CITY  CLOUDY    61  40  47 N15G22    29.97R
PLATTSMOUTH    CLOUDY    59  41  51 NW20      29.96R HAZE
$$

NEZ044-045-051>053-067-231600-
OMAHA AREA

CITY           SKY/WX    TMP DP  RH WIND       PRES   REMARKS
OMAHA EPPLEY   CLOUDY    61  40  45 N21G30    29.95R
BLAIR          CLOUDY    59  41  51 NW20G30   29.97R
FREMONT        CLOUDY    60  35  39 NW28G40   30.01R
MILLARD        MOSUNNY   63  41  45 NW21G26   29.98R
OFFUTT AFB     CLOUDY    61  40  47 NW15      29.96R HAZE
PLATTSMOUTH    CLOUDY    59  41  51 NW20      29.96R HAZE
WAHOO          FAIR      60  36  40 NW20G30   30.00R
$$




USA.gov is the U.S. government's official web portal to all federal, state and local government web resources and services.